This is the latest recevied weather packets stored in our database for station/object DL6MAA-11. If no packets are shown the sender has not sent any weather packets the latest 10 day(s).
| Time | Temp. | Humidity | Pressure | Rain* | Wind** | Luminosity | Snow |
|---|---|---|---|---|---|---|---|
| 1777466536 | 16.67° C | 37% | 1017.9 hPa | 0 mm | - | 531 W/m² | - |
| 1777466242 | 16.67° C | 36% | 1017.9 hPa | 0 mm | - | 533 W/m² | - |
| 1777465946 | 16.67° C | 38% | 1017.9 hPa | 0 mm | - | 540 W/m² | - |
| 1777465647 | 16.67° C | 40% | 1017.9 hPa | 0 mm | - | 545 W/m² | - |
| 1777465333 | 17.22° C | 38% | 1017.9 hPa | 0 mm | - | 548 W/m² | - |
| 1777465043 | 17.22° C | 38% | 1017.9 hPa | 0 mm | - | 543 W/m² | - |
| 1777464751 | 17.22° C | 38% | 1018 hPa | 0 mm | - | 550 W/m² | - |
| 1777464436 | 17.22° C | 39% | 1018 hPa | 0 mm | - | 552 W/m² | - |
| 1777464143 | 16.67° C | 40% | 1018 hPa | 0 mm | - | 547 W/m² | - |
| 1777463853 | 16.67° C | 40% | 1017.9 hPa | 0 mm | - | 554 W/m² | - |
| 1777463539 | 16.11° C | 40% | 1017.9 hPa | 0 mm | - | 554 W/m² | - |
| 1777463259 | 16.11° C | 38% | 1017.9 hPa | 0 mm | - | 550 W/m² | - |
| 1777462948 | 16.11° C | 39% | 1017.1 hPa | 0 mm | - | 552 W/m² | - |
| 1777462650 | 16.11° C | 39% | 1017.1 hPa | 0 mm | - | 554 W/m² | - |
| 1777462338 | 16.11° C | 39% | 1017.1 hPa | 0 mm | - | 552 W/m² | - |
| 1777462045 | 16.11° C | 38% | 1017.9 hPa | 0 mm | - | 555 W/m² | - |
| 1777461748 | 17.22° C | 39% | 1017.9 hPa | 0 mm | - | 555 W/m² | - |
| 1777461446 | 16.67° C | 42% | 1017.9 hPa | 0 mm | - | 554 W/m² | - |
| 1777461133 | 16.11° C | 40% | 1018 hPa | 0 mm | - | 559 W/m² | - |
| 1777460839 | 16.11° C | 38% | 1018 hPa | 0 mm | - | 555 W/m² | - |
| 1777460543 | 16.11° C | 41% | 1018 hPa | 0 mm | - | 550 W/m² | - |
| 1777460248 | 16.11° C | 41% | 1018.2 hPa | 0 mm | - | 552 W/m² | - |
| 1777459953 | 16.11° C | 39% | 1018.2 hPa | 0 mm | - | 552 W/m² | - |
| 1777459635 | 16.11° C | 43% | 1018.2 hPa | 0 mm | - | 547 W/m² | - |
| 1777459340 | 16.11° C | 40% | 1017.9 hPa | 0 mm | - | 545 W/m² | - |
* Rain since midnight (hover to see other rain measurements)
** Current wind speed in m/s (hover to see current wind gust speed)